GW4608 Weather Reports


time (UTC)temp
C
wind
direction
speed
KPH
gust
KPH
rain 1hr
cm
rain 24hr
cm
rain mn
cm
humidity
%
barometer
mb
20260504080139 5 312 0.0 0.0 0.00 0.00 0.00 85 1015.7
20260504070108 4 257 0.0 0.0 0.00 0.00 0.00 85 1016.2
20260504050456 3 269 0.0 0.0 0.00 0.00 0.00 80 1016.6
20260504045953 3 270 0.0 1.6 0.00 0.00 0.00 81 1016.7
20260504045449 3 253 1.6 1.6 0.00 0.00 0.00 80 1016.8
20260504044945 3 265 0.0 0.0 0.00 0.00 0.00 77 1016.8
20260504044443 3 265 0.0 0.0 0.00 0.00 0.00 77 1016.6
20260504043940 3 276 0.0 0.0 0.00 0.00 0.00 77 1016.4
20260504043437 3 266 0.0 0.0 0.00 0.00 0.00 79 1016.5
20260504042934 3 268 0.0 0.0 0.00 0.00 0.00 80 1016.6
20260504042431 3 267 0.0 0.0 0.00 0.00 0.00 81 1016.6
20260504041927 3 255 0.0 0.0 0.00 0.00 0.00 78 1016.5
20260504041424 3 267 0.0 0.0 0.00 0.00 0.00 76 1016.7
20260504040920 3 311 0.0 0.0 0.00 0.00 0.00 79 1016.6
20260504040418 3 311 0.0 0.0 0.00 0.00 0.00 79 1016.7
20260504035913 4 293 0.0 0.0 0.00 0.00 0.00 79 1016.6
20260504035411 4 287 0.0 0.0 0.00 0.00 0.00 79 1016.8
20260504034907 4 287 0.0 0.0 0.00 0.00 0.00 78 1016.6
20260504034405 5 287 0.0 0.0 0.00 0.00 0.00 76 1016.6
20260504033902 5 287 0.0 0.0 0.00 0.00 0.00 75 1016.6
20260504033400 5 287 0.0 0.0 0.00 0.00 0.00 72 1016.5
20260504032856 5 291 0.0 0.0 0.00 0.00 0.00 73 1016.6
20260504032353 5 286 0.0 0.0 0.00 0.00 0.00 75 1016.7
20260504031850 4 265 0.0 0.0 0.00 0.00 0.00 76 1016.4
20260504031347 5 312 0.0 0.0 0.00 0.00 0.00 76 1016.6
20260504030843 5 313 0.0 0.0 0.00 0.00 0.00 75 1016.5
20260504030341 5 313 0.0 0.0 0.00 0.00 0.00 72 1016.6
20260504025837 5 313 0.0 0.0 0.00 0.00 0.00 72 1016.4
20260504025334 5 303 0.0 0.0 0.00 0.00 0.00 73 1016.5
20260504024830 5 269 0.0 0.0 0.00 0.00 0.00 72 1016.5
20260504024327 5 271 0.0 0.0 0.00 0.00 0.00 69 1016.5
20260504023824 5 310 0.0 0.0 0.00 0.00 0.00 69 1016.6
20260504023321 5 310 0.0 0.0 0.00 0.00 0.00 69 1016.8
20260504022816 5 310 0.0 0.0 0.00 0.00 0.00 69 1016.6
20260504022313 6 310 0.0 0.0 0.00 0.00 0.00 69 1016.5
20260504021809 6 310 0.0 0.0 0.00 0.00 0.00 70 1016.7
20260504021308 6 340 0.0 0.0 0.00 0.00 0.00 68 1016.6
20260504020804 6 281 1.6 1.6 0.00 0.00 0.00 64 1016.7
20260504020301 6 254 0.0 0.0 0.00 0.00 0.00 71 1016.6
20260504015757 6 283 0.0 0.0 0.00 0.00 0.00 67 1016.6
20260504015253 6 267 0.0 0.0 0.00 0.00 0.00 70 1016.5
20260504014749 6 319 0.0 0.0 0.00 0.00 0.00 70 1016.2
20260504014246 6 274 0.0 0.0 0.00 0.00 0.00 64 1016.3
20260504013744 6 263 0.0 0.0 0.00 0.00 0.00 63 1016.2
20260504013241 6 254 0.0 0.0 0.00 0.00 0.00 67 1016.2
20260504012737 7 258 0.0 0.0 0.00 0.00 0.00 66 1016.1
20260504012235 8 345 0.0 3.2 0.00 0.00 0.00 59 1015.9
20260504011732 7 292 1.6 1.6 0.00 0.00 0.00 53 1016.1
20260504011229 7 261 0.0 0.0 0.00 0.00 0.00 64 1015.9
20260504010725 8 1 0.0 1.6 0.00 0.00 0.00 62 1016.0
20260504010220 8 281 1.6 1.6 0.00 0.00 0.00 56 1015.9
20260504005717 9 337 4.8 4.8 0.00 0.00 0.00 53 1015.9
20260504005214 9 281 0.0 1.6 0.00 0.00 0.00 46 1015.9
20260504004712 10 279 0.0 0.0 0.00 0.00 0.00 47 1015.9
20260504004209 9 278 1.6 3.2 0.00 0.00 0.00 48 1015.9
20260504003706 10 309 3.2 4.8 0.00 0.00 0.00 43 1015.8
20260504003202 10 281 0.0 1.6 0.00 0.00 0.00 43 1015.7
20260504002659 11 258 1.6 3.2 0.00 0.00 0.00 42 1015.8
20260504002156 12 294 0.0 3.2 0.00 0.00 0.00 37 1015.8
20260504001654 12 308 1.6 3.2 0.00 0.00 0.00 37 1015.8
20260504001150 12 313 3.2 3.2 0.00 0.00 0.00 36 1015.6
20260504000647 12 328 1.6 11.3 0.00 0.00 0.00 36 1015.8
20260504000145 12 293 3.2 3.2 0.00 0.00 0.00 36 1015.7
20260503235643 13 296 3.2 9.7 0.00 0.00 0.00 37 1015.8
20260503235139 13 291 3.2 6.4 0.00 0.00 0.00 37 1015.7
20260503234637 13 312 4.8 12.9 0.00 0.00 0.00 34 1015.8
20260503234135 13 303 9.7 9.7 0.00 0.00 0.00 34 1015.6
20260503233632 13 283 4.8 9.7 0.00 0.00 0.00 32 1015.6
20260503233127 14 300 6.4 11.3 0.00 0.00 0.00 33 1015.6
20260503232625 14 286 6.4 6.4 0.00 0.00 0.00 33 1015.7
20260503232122 14 285 4.8 11.3 0.00 0.00 0.00 34 1015.7
20260503231620 15 286 3.2 9.7 0.00 0.00 0.00 33 1015.6
20260503231116 15 313 9.7 11.3 0.00 0.00 0.00 31 1015.6
20260503230613 15 322 6.4 9.7 0.00 0.00 0.00 32 1015.6
20260503230110 15 281 4.8 9.7 0.00 0.00 0.00 31 1015.3
20260503225608 15 325 3.2 4.8 0.00 0.00 0.00 31 1015.5
20260503225107 15 301 4.8 6.4 0.00 0.00 0.00 31 1015.5
20260503224605 15 263 6.4 9.7 0.00 0.00 0.00 32 1015.6
20260503224103 15 267 8.0 12.9 0.00 0.00 0.00 31 1015.7
20260503223601 15 294 4.8 11.3 0.00 0.00 0.00 30 1015.6
20260503223056 15 267 8.0 11.3 0.00 0.00 0.00 32 1015.5
20260503222554 16 309 4.8 9.7 0.00 0.00 0.00 31 1015.6
20260503222052 15 264 3.2 9.7 0.00 0.00 0.00 31 1015.5
20260503221550 16 299 4.8 6.4 0.00 0.00 0.00 31 1015.6
20260503221047 16 336 3.2 4.8 0.00 0.00 0.00 34 1015.5
20260503220543 16 295 6.4 12.9 0.00 0.00 0.00 34 1015.6
20260503220040 16 299 4.8 6.4 0.00 0.00 0.00 32 1015.6
20260503215537 16 343 6.4 11.3 0.00 0.00 0.00 33 1015.6
20260503215034 16 294 6.4 9.7 0.00 0.00 0.00 31 1015.8
20260503214533 16 329 0.0 6.4 0.00 0.00 0.00 31 1015.7
20260503214029 15 282 3.2 12.9 0.00 0.00 0.00 33 1015.8
20260503213527 15 190 1.6 12.9 0.00 0.00 0.00 30 1015.7
20260503213024 15 269 6.4 14.5 0.00 0.00 0.00 32 1015.8
20260503212521 16 299 6.4 11.3 0.00 0.00 0.00 32 1015.8
20260503212018 16 276 6.4 17.7 0.00 0.00 0.00 34 1015.8
20260503211515 16 333 1.6 9.7 0.00 0.00 0.00 36 1015.7
20260503211011 16 239 0.0 4.8 0.00 0.00 0.00 29 1015.5
20260503210508 15 254 1.6 12.9 0.00 0.00 0.00 37 1015.7
20260503210003 15 288 8.0 11.3 0.00 0.00 0.00 34 1015.8
20260503205500 16 303 4.8 11.3 0.00 0.00 0.00 34 1015.8
20260503204956 15 239 6.4 12.9 0.00 0.00 0.00 31 1015.8
20260503204453 16 313 8.0 11.3 0.00 0.00 0.00 31 1015.9
20260503203950 16 343 8.0 14.5 0.00 0.00 0.00 32 1015.8
20260503203448 16 310 6.4 14.5 0.00 0.00 0.00 35 1015.9
20260503202944 16 356 4.8 6.4 0.00 0.00 0.00 32 1016.1
20260503202443 15 336 8.0 11.3 0.00 0.00 0.00 31 1016.1
20260503201941 15 283 3.2 9.7 0.00 0.00 0.00 37 1016.2
20260503201438 15 288 3.2 4.8 0.00 0.00 0.00 34 1016.4
20260503200935 16 263 8.0 9.7 0.00 0.00 0.00 34 1016.1
20260503200431 16 280 6.4 14.5 0.00 0.00 0.00 32 1016.3
20260503195928 15 247 4.8 12.9 0.00 0.00 0.00 33 1016.3
20260503195426 15 277 14.5 22.5 0.00 0.00 0.00 37 1016.5
20260503194922 15 272 3.2 16.1 0.00 0.00 0.00 33 1016.4
20260503194419 15 176 3.2 11.3 0.00 0.00 0.00 33 1016.6
20260503193914 15 299 6.4 11.3 0.00 0.00 0.00 35 1016.7
20260503193410 15 259 4.8 11.3 0.00 0.00 0.00 33 1016.7
20260503192906 15 215 6.4 22.5 0.00 0.00 0.00 35 1016.6
20260503192401 15 357 8.0 22.5 0.00 0.00 0.00 35 1016.7
20260503191858 15 281 1.6 6.4 0.00 0.00 0.00 35 1016.7
20260503191355 15 277 0.0 4.8 0.00 0.00 0.00 38 1017.2
20260503190852 15 206 9.7 12.9 0.00 0.00 0.00 33 1017.0
20260503190349 14 315 8.0 16.1 0.00 0.00 0.00 33 1017.2
20260503185846 15 329 8.0 11.3 0.00 0.00 0.00 39 1017.3
20260503185342 14 265 9.7 14.5 0.00 0.00 0.00 39 1017.2
20260503184837 14 346 11.3 20.9 0.00 0.00 0.00 37 1017.3
20260503184333 15 280 3.2 11.3 0.00 0.00 0.00 40 1017.3
20260503183829 15 287 9.7 11.3 0.00 0.00 0.00 38 1017.3
20260503183326 14 305 9.7 17.7 0.00 0.00 0.00 39 1017.3
20260503182824 14 340 14.5 16.1 0.00 0.00 0.00 36 1017.5
20260503182323 14 333 11.3 16.1 0.00 0.00 0.00 33 1017.6
20260503181820 14 273 6.4 9.7 0.00 0.00 0.00 37 1017.4
20260503181317 14 315 3.2 9.7 0.00 0.00 0.00 38 1017.6
20260503180813 13 355 12.9 17.7 0.00 0.00 0.00 37 1017.7
20260503180311 14 8 4.8 4.8 0.00 0.00 0.00 37 1017.6
20260503175807 14 23 9.7 16.1 0.00 0.00 0.00 34 1017.6
20260503175305 13 334 12.9 24.1 0.00 0.00 0.00 38 1017.9
20260503174800 13 338 9.7 12.9 0.00 0.00 0.00 40 1017.6
20260503174259 13 351 20.9 24.1 0.00 0.00 0.00 35 1017.8
20260503173754 12 276 14.5 16.1 0.00 0.00 0.00 38 1017.5
20260503173250 13 234 4.8 11.3 0.00 0.00 0.00 40 1017.7
20260503172747 13 206 3.2 12.9 0.00 0.00 0.00 35 1018.1
20260503172244 14 324 17.7 27.4 0.00 0.00 0.00 35 1018.0
20260503171741 13 295 4.8 9.7 0.00 0.00 0.00 38 1017.9
20260503171238 13 342 12.9 17.7 0.00 0.00 0.00 38 1018.0
20260503170735 13 344 3.2 6.4 0.00 0.00 0.00 41 1018.2
20260503170232 12 300 3.2 9.7 0.00 0.00 0.00 36 1018.0
20260503160153 11 338 8.0 14.5 0.00 0.00 0.00 45 1018.8
20260503150623 11 337 9.7 12.9 0.00 0.00 0.00 44 1019.4
20260503150120 9 292 9.7 20.9 0.00 0.00 0.00 46 1019.6
20260503131008 8 205 6.4 12.9 0.00 0.00 0.00 54 1019.4
20260503130505 8 327 9.7 12.9 0.00 0.00 0.00 58 1019.6
20260503110401 3 282 1.6 4.8 0.00 0.00 0.00 77 1018.9
20260503090252 0 266 0.0 0.0 0.00 0.00 0.00 90 1017.7
20260503081220 1 317 0.0 1.6 0.00 0.00 0.00 86 1017.6
20260503080715 2 268 3.2 4.8 0.00 0.00 0.00 83 1017.3